Location: Jeleśnia
(49.6536°N, 19.3166°E)
Time: 22:20:36
(UTC+02:00)

ISS - Visible Passes

Search period start: 22 September 2018 00:00
Search period end: 02 October 2018 00:00
Orbit: 403 x 408 km, 51.6° (Epoch: 23 September)

Date Brightness Start Highest point End Pass type
(mag) Time Alt. Az. Time Alt. Az. Time Alt. Az.
22 Sep -2.0 20:27:27 10° SSW 20:28:53 20° S 20:28:53 20° S visible
23 Sep -2.1 19:36:19 10° S 19:38:38 18° SE 19:39:38 16° ESE visible
23 Sep -1.3 21:11:27 10° WSW 21:12:21 17° WSW 21:12:21 17° WSW visible
24 Sep -3.6 20:19:41 10° SW 20:22:53 51° SSE 20:22:54 51° SSE visible
25 Sep -2.9 19:28:05 10° SSW 19:31:05 33° SSE 19:33:18 15° E visible
25 Sep -2.0 21:04:09 10° W 21:05:59 30° W 21:05:59 30° W visible
26 Sep -3.9 20:12:13 10° WSW 20:15:31 84° SSE 20:16:15 51° ENE visible
26 Sep -0.3 21:48:53 10° W 21:48:56 10° W 21:48:56 10° W visible
27 Sep -3.7 19:20:22 10° SW 19:23:37 59° SSE 19:26:26 13° ENE visible
27 Sep -2.3 20:56:54 10° W 20:59:06 37° WNW 20:59:06 37° WNW visible
28 Sep -3.7 20:04:52 10° W 20:08:10 69° NNW 20:09:12 40° ENE visible
28 Sep -0.4 21:41:35 10° WNW 21:41:52 12° WNW 21:41:52 12° WNW visible
29 Sep -3.8 19:12:53 10° WSW 19:16:11 87° NNW 19:19:14 12° ENE visible
29 Sep -2.4 20:49:35 10° WNW 20:51:54 39° WNW 20:51:54 39° WNW visible
30 Sep -3.5 19:57:33 10° W 20:00:49 59° N 20:01:54 36° ENE visible
30 Sep -0.5 21:34:10 10° WNW 21:34:34 13° WNW 21:34:34 13° WNW visible
01 Oct -3.5 19:05:29 10° W 19:08:47 65° N 19:11:53 11° ENE visible
01 Oct -2.6 20:42:11 10° WNW 20:44:32 42° WNW 20:44:32 42° WNW visible
